Showing default

METEOR M2-2, 44387

Orbit data source: Space-Track

METEOR M2-2, 44387 is a Commonwealth of Independent States-origin payload satellite in SSO that was launched on Fri, 05 Jul 2019 UTC via a SOYUZ-2-1B launch vehicle from the Vostochny Cosmodrome (VOSTO). Payload-class satellites include a variety of spacecraft equipped with specific instruments for various scientific and technological missions. These include communications satellites like Starlink; space stations such as the ISS; scientific satellites like the Hubble; Earth observation satellites from companies like Planet Labs, Umbra, and HawkEye 360; GPS; miniature CubeSats for education and research; and military/defense satellites.

Loading next visibility...
Identifier
44387, 2019-038A
Orbit
SSO
Country
Flag of CISCIS
Related business
Manufacturer
VNIIEM
Mission
Partially operational Civil Weather
Bus & Motor
RESURS-O, Unknown motor
Mass
2,879 kg wet, ~2,600 kg dry
Launch date (UTC)
2019-07-05 (6 years ago)
Launch vehicle
SOYUZ-2-1B
Launch site
Vostochny Cosmodrome (VOSTO)
Object type
Payload
Rocket body
Debris
Shape & HBR
Cyl + 2 Pan, 7.0 m
Radar Cross Section
26.744 m², Large (>1 m²)

Expand to show TLE details & history
Last TLE update: 7 hours ago

TLE from 7 hours ago
0 METEOR M2-2
1 44387U 19038A   25261.94362384  .00000134  00000-0  77857-4 0  9998
2 44387  98.8857 240.6745 0002368  82.4119 277.7328 14.24236606322686
Epoch: 2025-09-18T22:38Z
TLE epoch observation values (Epoch: 2025-09-18T22:38:49.099Z)
Latitude
-0.00006°
Longitude
-97.12804°
Altitude
813.746 km
Speed
7.446 km/s
True Right ascension
16h 02m 41s
True Declination
0° 00' 00"
Sunlit
Object was in daylight at epoch
Visualization orbit readout
Latitude
Unknown
Longitude
Unknown
Altitude
Unknown
Speed
Unknown
Apparent Right ascension
Unknown
Apparent Declination
Unknown
Sunlit
N/A
Visualization observer readout
Local Sidereal Time
22:27:52
Azimuth
Unknown
Elevation
Unknown
Doppler factor
Unknown
Orbital elements
Apogee altitude
809.924 km
Perigee altitude
806.52 km
Semi-major axis
7,186.359 km
Eccentricity
0.00024
Inclination
98.8857°
RAAN
240.6745°
Arg. of periapsis
82.4119°
True anomaly
277.70591°
Mean anomaly
277.7328°
Eccentric anomaly
277.71936°
Mean motion
3.5627 °/min
Orbital period
101.05 mins
BSTAR
0.000077857
Loading maneuver chart data...
Computing Atmospheric mass density...

Documentation

Showing up to 5 results
|